1st Responders/1st Detectors/Storm Spotters Weather Summary for Clinton County, KY

Forecast Maps


Reg. NEXRAD Animation


National Fire Danger: Day 1 & 2 Map

Current NWS Watch/Warnings

SPC Convective Day 1 Outlook


Day 2 Outlook

(Click images to enlarge|Page will refresh every 5 minutes)
UK Ag. Weather Center Desktop Severe Weather Service[HERE]
Clinton County, KY Hazardous Weather Outlook Webcast
(9 AM to 9 PM Mon-Fri)
[Fast]
[Dial-up]


UKAWC 1st Detectors/1st Responders Precision Weather Forecast For CLINTON County, Kentucky
(based on the NWS County Digital Forecast)

ISSUED AT 06:00 UTC ON SUNDAY DEC 17 2017
DAY SUNDAY
CDT 3HR 2A 3A 4A 5A 6A 7A 8A 9A 10A 11A NOON 1P 2P 3P 4P 5P 6P
MAX/MIN -- -- -- -- -- 32° -- -- -- -- -- -- -- -- -- -- 49°
TEMP 34° 34° 34° 32° 32° 34° 36° 38° 40° 43° 45° 47° 47° 49° 49° 47° 45°
SKY COVER 50% 57% 65% 72% 79% 86% 90% 95% 100% 100% 99% 99% 99% 100% 100% 100% 100%
Clouds
DEW PT 27° 27° 27° 27° 27° 27° 27° 29° 29° 31° 31° 32° 34° 36° 38° 38° 38°
RH 78% 75% 78% 81% 81% 74% 72% 70% 64% 59% 58% 57% 60% 60% 65% 71% 76%
POP 12HR -- -- -- -- -- 4% -- -- -- -- -- -- -- -- -- -- --
RAIN/SNOW (liq.equ) -- -- -- -- -- 0.00in -- -- -- -- -- 0.06in -- -- -- -- --
SNOWFALL -- -- -- -- -- 0in -- -- -- -- -- 0in -- -- -- -- --
WIND SPEED(MPH) 2 2 2 5 2 5 2 2 5 6 6 7 7 6 5 6 5
WIND Gust(MPH) 5 5 5 6 5 6 5 5 6 7 7 7 8 7 8 7 6
WIND DIR S S S S SE S S S S S S S S S S S S
DEW Frost Frost Frost Frost Frost Frost Frost -- -- -- -- -- -- -- -- -- --
HeatIndex 31 31 31 28 29 29 33 35 38 40 45 47 47 49 49 47 42
Snow Showers -- -- -- -- -- -- -- -- -- -- -- -- -- -- -- -- --
Rain Showers -- -- -- -- -- -- Slight Chance Chance Chance Chance Likely Likely Likely Likely Likely Chance Chance
WIND CHILL -- -- -- 28° -- 30° -- -- 37° 39° 42° -- -- -- -- -- 43°
SPRAY COND
DRY COND
LIVESTOCK COLDSTRESS



DAY MONDAY TUESDAY WEDNESDAY THURSDAY FRIDAY SATURDAY
CDT 6HR 7P 8P 9P 10P 11P MIDN 1A 2A 3A 4A 5A 6A 7A 8A 9A 10A 11A NOON 1P 4P 7P 10P 1A 4A 7A 10A 1P 4P 7P 1A 7A 1P 7P 1A 7A 1P 7P 1A 7A 1P 7P 1A 7A 1P 7P
MAX/MIN -- -- -- -- -- -- -- -- -- -- -- -- 40° -- -- -- -- -- -- 56° -- -- -- -- 43° -- -- 58° -- -- 36° 52° -- -- 36° 58° -- -- 40° 54° -- -- 31° 43° --
TEMP 41° 40° 40° 40° 40° 40° 40° 40° 40° 40° 40° 40° 40° 43° 45° 47° 49° 52° 54° 56° 50° 47° 45° 45° 43° 49° 56° 58° 52° 41° 36° 50° 41° 36° 36° 56° 45° 41° 40° 54° 45° 36° 31° 40° 36°
SKY COVER 100% 98% 96% 94% 91% 89% 87% 87% 86% 86% 86% 85% 85% 84% 82% 81% 80% 78% 77% 74% 70% 62% 53% 65% 77% 72% 67% 63% 59% 62% 62% 64% 46% 34% 42% 37% 47% 55% 79% 90% 90% 88% 88% 92% 93%
Clouds
DEW PT 38° 38° 40° 40° 40° 40° 40° 40° 40° 40° 40° 40° 40° 43° 43° 45° 45° 45° 45° 45° 45° 43° 43° 43° 43° 45° 47° 45° 45° 40° 34° 34° 34° 32° 34° 41° 43° 40° 40° 43° 38° 32° 31° 31° 29°
RH 89% 92% 96% 99% 99% 100% 100% 100% 99% 99% 100% 99% 99% 99% 95% 89% 83% 80% 74% 68% 79% 85% 92% 96% 99% 86% 71% 63% 80% 92% 89% 51% 72% 89% 92% 59% 89% 95% 100% 63% 75% 88% 95% 69% 75%
POP 12HR 67% -- -- -- -- -- -- -- -- -- -- -- 24% -- -- -- -- -- -- -- 8% -- -- -- 5% -- -- -- 25% -- 24% -- 45% -- 22% -- 6% -- 21% -- 42% -- 47% -- 60%
RAIN/SNOW (liq.equ) 0.07in -- -- -- -- -- 0.00in -- -- -- -- -- 0.00in -- -- -- -- -- 0.00in -- 0.00in -- 0.00in -- 0.00in -- 0.00in -- 0.00in -- -- -- -- -- -- -- -- -- -- -- -- -- -- -- --
SNOWFALL 0in -- -- -- -- -- 0in -- -- -- -- -- 0in -- -- -- -- -- 0in -- 0in -- 0in -- 0in -- 0in -- 0in -- -- -- -- -- -- -- -- -- -- -- -- -- -- -- --
WIND SPEED(MPH) 6 6 6 6 5 5 2 2 2 2 2 2 2 2 2 5 6 7 7 7 7 6 6 6 6 6 7 7 6 2 5 7 7 2 2 6 7 7 7 8 7 5 7 6 7
WIND DIR S S S S S S S S SW SW SW S S S SW SW SW SW SW SW SW SW SW SW SW SW SW W W NW NE NE E E SE S S S S SW NW N N NW N
HeatIndex 38 37 37 35 36 36 37 38 38 38 38 38 38 41 43 47 49 52 54 56 50 47 41 41 40 49 56 58 52 40 33 50 37 33 34 56 45 37 35 54 40 32 25 35 30
Snow Showers -- -- -- -- -- -- -- -- -- -- -- -- -- -- -- -- -- -- -- -- -- -- -- -- -- -- -- -- -- -- -- -- -- -- -- -- -- -- -- -- -- Chance Likely -- Chance
Rain Showers Slight Chance Slight Chance Slight Chance Slight Chance -- -- -- -- -- -- -- -- -- -- -- -- -- -- -- -- -- -- -- -- -- -- Chance Chance Slight Chance Slight Chance Chance Chance Slight Chance -- -- -- -- Chance Chance Chance Chance Chance -- Likely Chance
WIND CHILL 37° 36° 36° 36° 37° 37° -- -- -- -- -- -- -- -- -- -- -- -- -- -- -- -- 42° 42° 39° -- -- -- -- -- 32° -- 36° -- -- -- 41° 36° 35° -- 41° 32° 25° 36° 30°
SPRAY COND
DRY COND
LIVESTOCK COLDSTRESS

Click on individual weather variable above in left-hand column (ie., TEMP, RH, QPF 12HR) to view state forecast maps






NWS 48 Hr. Forecast Maps,

Regional Hourly Observations For CLINTON County, Kentucky
Issued at 100 AM EST SUN DEC 17 2017
SOUTHEAST KENTUCKY
  
CITY           SKY/WX    TMP DP  RH WIND       PRES   REMARKS
JACKSON        CLOUDY    39  26  59 SW3       30.22F                  
LONDON         CLOUDY    31  26  82 CALM      30.24R                  
SOMERSET       CLOUDY    37  28  70 S5        30.25F WCI  34          
MIDDLESBORO    CLOUDY    30  27  89 CALM      30.26F                  
MONTICELLO     MOCLDY    30  27  88 W9        30.26S WCI  22          


Current NOWCAST not available:
Nowcasts are not issued routinely during fair weather. Only when
precipitation or other significant weather is occuring in this county will these
forecasts be issued. Currently, there is no short term forecast in effect.


Fire Weather Forecast For CLINTON County, KY
Provided by the National Weather Service:

Issued at: Sun Dec 17 01:05:01 EST 2017


                      Today        Tonight      Sun          

CLOUD COVER           MClear       PCldy        Cloudy       
PRECIP TYPE           NONE         NONE         showers      
CHANCE PRECIP (%)     0            0            70           
TEMP (24H TREND)      53 (+17)     33 (+5)      47           
RH % (24H TREND)      41 (-9)      86 (+2)      64           
20FTWND-VAL/AM(MPH)   SW  8 G19                 Lgt/Var      
20FTWND-RDG/PM(MPH)   SW  9 G19    Lgt/Var      Lgt/Var      
PRECIP AMOUNT         0.00         0.00         0.10         
MIXING HGT(FT-AGL/MSL)3164                      1690         
TRANSPORT WND (MPH)   SW 23                     S 13         
VENT RATE (KT-FT)     71760                     22032        
DISPERSION            Good                      Poor         
DSI                   STBL         STBL         STBL         
LAL                   1            1            1            
HAINES INDEX          3            4            3            
ADI EARLY             45 GEN GOOD  4 VERY POOR  18 GEN POOR  
ADI LATE              55 GEN GOOD  5 VERY POOR  24 FAIR      
MAX LVORI EARLY       4            4            4            
MAX LVORI LATE        2            5            4            

REMARKS...ADI IS ATMOSPHERIC DISPERSION INDEX BY LAVDAS.        
LVORI IS LOW VISIBILITY OCCURRENCE RISK INDEX.

.MONDAY...Mostly cloudy. Lows around 40. Highs in the mid 50s.
South winds around 5 mph. 
.TUESDAY...Mostly cloudy. Lows in the lower 40s. Highs in the
upper 50s. Southwest winds around 5 mph. 
.WEDNESDAY...Partly cloudy. Lows in the mid 30s. Highs in the
lower 50s. Northeast winds up to 5 mph. 
.THURSDAY...Partly cloudy. Lows in the mid 30s. Highs in the
upper 50s. South winds up to 10 mph. 
.FRIDAY...Mostly cloudy with a 50 percent chance of rain showers.
Lows in the lower 40s. Highs in the mid 50s. West winds 5 to
10 mph. 

SPC's Fire Weather Web Tool (Excellent!), SPC's Fire Weather Outlooks, NWS Fire Weather WEB, Fire Danger Class Map,
Keetch-Byram Drought Index, ROMAN Web, Haines Index ,
WFAS's 10-hr Dead Fuel Moist., WFAS's 100-hr Dead Fuel Moist., Probablity of Ignition, Visual blackness Map, Palmer Drought Index, HPC's Rainfall Forecast Maps


Hazardous Weather Outlook For CLINTON County, Kentucky
352 PM EST Sat Dec 16 2017 /252 PM CST Sat Dec 16 2017/

 DAY ONE  This Afternoon and Tonight

No hazardous weather is expected at this time.

 DAYS TWO THROUGH SEVEN  Sunday through Friday

The chance for a rain-snow mix is in the forecast for Friday night
into Saturday, but at this time, confidence on the exact timing
and location of any snow remains low. If you plan to travel over
the holiday weekend, stay tuned for later forecasts highlighting
the potential for active winter weather. 

 SPOTTER INFORMATION STATEMENT  

Spotter activation will not be needed.

Latest CLINTON County, Kentucky Watches, Warnings and Advisories.
Additional Drought Info.: UKAWC Drought Page, Kentucky Drought Watch


7-Day Forecast For CLINTON County, KY

OVERNIGHT
Partly cloudy. Lows in the mid 30s. South winds up to 10 mph.

SUNDAY
Rain showers likely. Highs in the upper 40s. South winds up to 10 mph. Chance of showers 70 percent.

SUNDAY NIGHT
Cloudy with a 20 percent chance of showers. Lows in the lower 40s. South winds 5 to 10 mph.

MONDAY
Mostly cloudy. Highs in the mid 50s. Southwest winds 5 to 10 mph.

MONDAY NIGHT
Partly cloudy. Lows in the mid 40s. Southwest winds 5 to 10 mph.

TUESDAY
Mostly cloudy with a 30 percent chance of showers. Highs in the upper 50s.

TUESDAY NIGHT
Partly cloudy with a 30 percent chance of rain showers. Lows in the upper 30s.

WEDNESDAY
Partly cloudy with a 50 percent chance of rain showers. Highs in the lower 50s.

WEDNESDAY NIGHT
Partly cloudy with a 20 percent chance of rain showers. Lows in the mid 30s.

THURSDAY
Partly cloudy. Highs in the upper 50s.

THURSDAY NIGHT
Partly cloudy with a 20 percent chance of showers. Lows in the lower 40s.

FRIDAY
Mostly cloudy with a 50 percent chance of showers. Highs in the mid 50s.

FRIDAY NIGHT
Cloudy with a 50 percent chance of rain showers possibly mixed with snow showers. Lows in the lower 30s.

SATURDAY
Rain showers possibly mixed with snow showers. Highs in the lower 40s. Chance of precipitation 60 percent.

Ag Weather Center, Department of Biosystems & Agricultural Engineering, University of Kentucky